User: anonymous   Login
Location: Newark
(48.1500°N, 13.1167°E)
Time: 15:44:22
(UTC+00:00)
Language:

UKube-1 - Orbit

View from above orbital plane
View from above orbital plane
View from above satellite
View from above satellite

Ground track
Ground track

The orbit data is extracted from the following two-line orbital elements,

1 40074U 14037F   21337.20895405  .00000742  00000-0  94599-4 0  9992
2 40074  98.4062 202.3831 0003535 189.4687 170.6458 14.84749848400949
Epoch (UTC): 03 December 2021 05:00:53
Eccentricity: 0.0003535
inclination: 98.4062°
perigee height: 612 km
apogee height: 617 km
right ascension of ascending node: 202.3831°
argument of perigee: 189.4687°
revolutions per day: 14.84749848
mean anomaly at epoch: 170.6458°
orbit number at epoch: 40094

The dashed part of the orbit path shows where the satellite is in the earth's shadow,  

DLR